Flag for U.S.A. Weather past 2 weeks in Hampton, Virginia, U.S.A.

Now
34 °F

Fog.


Feels Like: 26 °F
Forecast: 33 / 43 °F
Wind: 9 mph from West

Location: Langley Air Force Base

Current Time: Mar 2, 2015 at 7:24:33 AM

Latest Report: Mar 2, 2015 at 6:58 AM


Visibility: 5 mi

Pressure: 30.14 "Hg

Humidity: 96%

Dew point: 33 °F

Location of HamptonLocation

Historic Weather in Hampton — Graph

°F

Hampton temperature yesterday

Maximum temperature yesterday: 33 °F (at 11:58 PM)
Minimum temperature yesterday: 23 °F (at 12:58 AM)
Average temperature yesterday: 30 °F

Past Weeks' High & Low Weather Summary

 TemperatureHumidityPressure
High47 °F (Feb 22, 2:58 PM)100% (Feb 22, 6:03 AM)30.86 "Hg (Feb 22, 6:03 AM)
Low6 °F (Feb 20, 6:58 AM)18% (Feb 15, 3:58 PM)29.74 "Hg (Feb 26, 4:03 AM)
Average27 °F68%30.23 "Hg
* Reported Feb 15 6:58 AM — Mar 2 6:03 AM, Hampton, Weather by CustomWeather, © 2015

Note: Actual official high and low records may vary slightly from our data, if they occured in-between our weather recording intervals... More about our weather records

Advertising

Hampton weather history for previous 24 hours

 ConditionsComfort  
Time TempWeatherWind HumidityBarometerVisibility
6:03 AM
Mon, Mar 2
32 °FIce fog.14 mph100%30.13 "Hg3 mi
4:58 AM34 °FFog.9 mph96%30.15 "Hg1 mi
4:03 AM34 °FLow clouds.8 mph93%30.12 "Hg9 mi
3:58 AM34 °FLow clouds.7 mph94%30.14 "Hg10 mi
2:58 AM34 °FClear.7 mph94%30.18 "Hg10 mi
2:03 AM32 °FMostly cloudy.9 mph100%30.17 "Hg7 mi
1:58 AM34 °FLow clouds.9 mph95%30.19 "Hg8 mi
12:58 AM33 °FFog.6 mphN/A30.24 "Hg6 mi
11:58 PM
Sun, Mar 1
33 °FMostly cloudy.12 mph95%30.27 "Hg9 mi
10:58 PM33 °FPassing clouds.5 mph95%30.28 "Hg8 mi
9:58 PM33 °FFog.5 mph95%30.29 "Hg6 mi
9:03 PM32 °FIce fog.3 mph100%30.31 "Hg4 mi
8:58 PM33 °FFog.1 mph95%30.34 "Hg4 mi
8:03 PM32 °FOvercast.1 mph100%30.34 "Hg9 mi
7:58 PM32 °FOvercast.2 mph93%30.36 "Hg10 mi
6:58 PM32 °FMostly cloudy.No wind95%30.39 "Hg8 mi
6:03 PM32 °FLight freezing rain. Ice fog.2 mph93%30.37 "Hg2 mi
4:58 PM31 °FLight snow. Ice fog.7 mph93%30.40 "Hg6 mi
4:03 PM32 °FDrizzle. Ice fog.6 mph87%30.41 "Hg5 mi
3:58 PM31 °FLight snow. Ice fog.5 mph91%30.43 "Hg4 mi
2:58 PM31 °FDrizzle. Ice fog.8 mph90%30.46 "Hg5 mi
1:59 PM32 °FLight snow. Overcast.9 mph87%30.47 "Hg8 mi
1:02 PM32 °FOvercast.6 mph87%30.49 "Hg9 mi
12:58 PM32 °FDrizzle. Overcast.7 mph85%30.51 "Hg7 mi
11:59 AM32 °FDrizzle. Overcast.5 mph80%30.55 "Hg9 mi
11:03 AM32 °FMostly cloudy.6 mph80%30.59 "Hg10 mi
9:58 AM30 °FOvercast.7 mph82%30.62 "Hg10 mi
8:58 AM30 °FLight snow. Overcast.8 mph77%30.65 "Hg6 mi
7:58 AM30 °FOvercast.7 mph76%30.66 "Hg10 mi
Weather by CustomWeather, © 2015

See weather overviewHow to use our weather pages